[[{"header":{"parameterUnit":"m.s-1","parameterCategory":1,"la1":30.2991,"la2":30.254,"lo1":-89.0895,"lo2":-89.0444,"dy":0.0017,"dx":0.0017,"nx":28,"ny":28,"refTime":"2024-02-21T03:00:00:Z","depth":0,"parameterNumber":2,"parameterNumberName":"U-component_of_WINDS"},"data":[0,0,0,0,0,0,0,0,0,0,0,0,0,0,0,0,0,0,0,0,0,0,0,0,0,0,0,0,0,0,0,0,0,0,0,0,0,0,0,0,0,0,0,0,0,0,0,0,0,0,0,0,0,0,0,0,0,0,1.0193,1.0192,0,1.0164,1.0163,1.0163,1.0142,1.0142,1.0141,1.0141,1.0112,1.0111,1.011,0,0,0,0,0,0,0,0,0,0,0,0,0,1.023,1.0229,1.0193,1.0192,1.0192,1.0164,1.0163,1.0163,1.0142,1.0142,1.0141,1.0141,1.0112,1.0111,1.011,0,0,0,0,0,0,0,0,0,0,0,0,0,1.0209,1.0229,1.0193,1.0178,1.0176,1.0164,1.0163,1.0163,1.0142,1.0142,1.0141,1.0141,1.0112,1.0111,1.011,1.011,0,0,1.0107,1.0107,0,0,0,0,0,0,0,0,1.021,1.0207,1.0181,1.0179,1.0177,1.0156,1.0166,1.0145,1.0142,1.0155,1.0141,1.0141,1.0127,1.0125,1.012,1.0109,1.0107,1.0107,1.0107,1.0106,1.0106,0,0,0,0,0,0,0,1.0211,1.0208,1.0181,1.018,1.0178,1.0173,1.017,1.0162,1.0143,1.0154,1.0152,1.0149,1.0126,1.0121,1.0119,1.0107,1.0107,1.0107,1.0106,1.0106,1.0094,1.0094,0,0,0,0,0,0,1.0215,1.021,1.0182,1.018,1.0193,1.0173,1.0169,1.0163,1.0143,1.0139,1.0149,1.0148,1.0122,1.012,1.0118,1.0116,1.0106,1.0106,1.0105,1.0094,1.0094,1.0095,0,0,0,0,0,0,1.0216,1.0213,1.0183,1.0195,1.019,1.0172,1.0166,1.0163,1.0158,1.0139,1.0136,1.0148,1.0122,1.0119,1.0112,1.0115,1.0105,1.0104,1.0094,1.0094,1.0094,1.0113,0,0,0,0,0,0,1.0217,1.0213,1.0213,1.0195,1.019,1.0178,1.0166,1.0162,1.0156,1.0154,1.0137,1.0134,1.0122,1.0114,1.0111,1.0113,1.0104,1.0093,1.0094,1.0094,1.0112,1.0114,1.0115,0,0,0,0,0,1.0219,1.0219,1.0213,1.021,1.0189,1.0178,1.0176,1.0162,1.0156,1.0156,1.0144,1.0134,1.0115,1.0113,1.011,1.0112,1.0093,1.0094,1.0094,1.0111,1.0113,1.0115,0,0,0,0,0,0,1.0238,1.0217,1.021,1.0204,1.0193,1.0175,1.0174,1.0165,1.0155,1.0154,1.0137,1.0133,1.0128,1.0119,1.0118,1.0111,1.0103,1.0103,1.0117,1.0119,1.012,1.0123,1.0103,0,0,0,0,0,1.0242,1.0235,1.0217,1.0214,1.0209,1.0192,1.0187,1.0177,1.0165,1.0161,1.0148,1.0137,1.0128,1.0123,1.0114,1.0111,1.0106,1.011,1.0112,1.0114,1.0114,1.0112,1.0113,1.0096,1.0096,1.0096,0,0,1.025,1.0237,1.0234,1.0218,1.0208,1.0201,1.0189,1.0182,1.0177,1.0159,1.0152,1.0143,1.0129,1.0124,1.0121,1.0117,1.0118,1.0115,1.0116,1.0115,1.0112,1.0114,1.0115,1.0097,1.0097,1.0097,0,0,1.026,1.025,1.0247,1.0237,1.0223,1.0212,1.0211,1.0194,1.0187,1.018,1.0167,1.016,1.0146,1.0136,1.013,1.0137,1.0128,1.0135,1.0144,1.0142,1.0143,1.0144,1.0147,1.0148,1.0135,1.0135,1.0135,0,1.0271,1.0261,1.0246,1.024,1.0233,1.0218,1.0214,1.0206,1.0189,1.0185,1.018,1.0162,1.0151,1.0144,1.0146,1.0141,1.0139,1.0137,1.0144,1.0145,1.0146,1.0148,1.0149,1.0136,1.0136,1.0136,1.0136,0,1.0275,1.0268,1.0267,1.0252,1.0245,1.024,1.0225,1.022,1.0211,1.02,1.0193,1.018,1.0168,1.0166,1.0157,1.0157,1.0155,1.0147,1.0139,1.0149,1.0151,1.0151,1.0137,1.0137,1.0137,1.0136,0,0,1.0297,1.0274,1.0274,1.0267,1.025,1.0244,1.0239,1.0227,1.0223,1.0212,1.0207,1.0196,1.0189,1.0181,1.0171,1.0169,1.0176,1.0162,1.0161,1.0165,1.0176,1.0181,1.0183,1.017,1.017,1.017,1.0177,0,1.0305,1.0295,1.0282,1.0276,1.0269,1.0254,1.025,1.0239,1.0229,1.0222,1.0211,1.0203,1.0194,1.019,1.0187,1.0176,1.0178,1.0175,1.0165,1.0165,1.0169,1.0183,1.0189,1.0197,1.0177,1.0177,1.0178,0,1.0313,1.0303,1.0297,1.0281,1.0277,1.0273,1.0262,1.0255,1.0243,1.0236,1.0228,1.0217,1.021,1.0203,1.0194,1.0192,1.0188,1.0181,1.0181,1.018,1.0172,1.0182,1.0199,1.02,1.0179,1.0178,1.0178,0,1.033,1.0315,1.0309,1.0303,1.0284,1.0282,1.0274,1.0261,1.0255,1.0245,1.0241,1.023,1.0225,1.0217,1.0203,1.0199,1.0196,1.0187,1.019,1.019,1.019,1.019,1.0205,1.0187,1.0187,1.0187,1.0187,0,1.034,1.0337,1.0316,1.0313,1.0309,1.0294,1.029,1.028,1.0269,1.0264,1.025,1.0245,1.0228,1.0221,1.021,1.0204,1.0202,1.0196,1.0193,1.0197,1.0198,1.0194,1.0193,1.0187,1.0187,1.0187,1.0187,0,1.0358,1.0344,1.0337,1.032,1.0315,1.0313,1.0298,1.0294,1.0284,1.0277,1.0274,1.0258,1.0249,1.0235,1.0222,1.0214,1.0211,1.0206,1.0215,1.0213,1.0217,1.0217,1.023,1.0231,1.0212,1.0212,1.0212,0,1.0365,1.0362,1.0345,1.034,1.0333,1.0325,1.0319,1.0304,1.0298,1.0284,1.0282,1.0272,1.0263,1.0249,1.0236,1.0226,1.0221,1.0226,1.0219,1.0224,1.0221,1.0222,1.0221,1.0228,1.0228,1.0229,1.0229,0,1.038,1.0373,1.0365,1.0354,1.0348,1.0338,1.0329,1.0326,1.0308,1.0303,1.0293,1.0287,1.0273,1.0263,1.0252,1.0243,1.0233,1.0231,1.0231,1.0235,1.0241,1.0238,1.0219,1.0231,1.0231,1.0231,1.023,1.023,1.0392,1.0389,1.0377,1.0368,1.0359,1.035,1.0346,1.0335,1.0327,1.0315,1.0307,1.0298,1.0286,1.0269,1.0261,1.0254,1.0249,1.0249,1.0249,1.025,1.0251,1.0242,1.0251,1.0251,1.0251,1.0251,1.0251,0,1.0406,1.0398,1.039,1.0377,1.037,1.0361,1.035,1.0345,1.0337,1.0327,1.0318,1.0308,1.0298,1.0285,1.0274,1.0271,1.0266,1.0269,1.0269,1.0267,1.0256,1.0257,1.0273,1.0273,1.0273,1.0273,1.0273,1.0273,1.0413,1.0407,1.0399,1.0389,1.038,1.0371,1.0366,1.0358,1.0349,1.0338,1.033,1.0321,1.0309,1.0298,1.0289,1.0285,1.0282,1.0286,1.0281,1.027,1.0268,1.0266,1.0267,1.0285,1.0285,1.0293,1.0293,1.0293]},{"header":{"parameterUnit":"m.s-1","parameterCategory":1,"la1":30.2991,"la2":30.254,"lo1":-89.0895,"lo2":-89.0444,"dy":0.0017,"dx":0.0017,"nx":28,"ny":28,"refTime":"2024-02-21T03:00:00:Z","depth":0,"parameterNumber":3,"parameterNumberName":"V-component_of_WINDS"},"data":[0,0,0,0,0,0,0,0,0,0,0,0,0,0,0,0,0,0,0,0,0,0,0,0,0,0,0,0,0,0,0,0,0,0,0,0,0,0,0,0,0,0,0,0,0,0,0,0,0,0,0,0,0,0,0,0,0,0,5.6023,5.6022,0,5.6005,5.6004,5.6004,5.5985,5.5985,5.5985,5.5984,5.5968,5.5967,5.5967,0,0,0,0,0,0,0,0,0,0,0,0,0,5.6045,5.6044,5.6023,5.6022,5.6022,5.6005,5.6004,5.6004,5.5985,5.5985,5.5984,5.5984,5.5968,5.5967,5.5967,0,0,0,0,0,0,0,0,0,0,0,0,0,5.6032,5.6044,5.6023,5.601,5.6009,5.6005,5.6004,5.6004,5.5985,5.5985,5.5984,5.5984,5.5968,5.5968,5.5967,5.5974,0,0,5.5966,5.5966,0,0,0,0,0,0,0,0,5.6033,5.6031,5.6012,5.6011,5.601,5.5997,5.6006,5.5994,5.5985,5.5994,5.5984,5.5984,5.5978,5.5977,5.5974,5.5973,5.5972,5.5966,5.5966,5.5966,5.5966,0,0,0,0,0,0,0,5.6033,5.6032,5.6015,5.6012,5.6011,5.6007,5.6005,5.6004,5.5989,5.5994,5.5992,5.599,5.5977,5.5975,5.5974,5.5972,5.5966,5.5966,5.5966,5.5966,5.598,5.5981,0,0,0,0,0,0,5.6036,5.6033,5.6016,5.6015,5.602,5.6007,5.6005,5.6001,5.5989,5.5986,5.5991,5.5989,5.5975,5.5974,5.5973,5.5982,5.5966,5.5966,5.5966,5.598,5.598,5.5981,0,0,0,0,0,0,5.6036,5.6034,5.6017,5.6023,5.6021,5.6007,5.6004,5.6001,5.5999,5.5986,5.5984,5.599,5.5975,5.5973,5.5975,5.5981,5.5966,5.5965,5.5979,5.598,5.5981,5.6,0,0,0,0,0,0,5.6037,5.6035,5.6036,5.6024,5.6021,5.6017,5.6004,5.6001,5.5998,5.5996,5.5986,5.5983,5.5974,5.5975,5.5974,5.5981,5.5965,5.5978,5.5979,5.598,5.5998,5.6001,5.6003,0,0,0,0,0,5.6038,5.6041,5.6036,5.6034,5.6021,5.6017,5.6016,5.6005,5.5999,5.6001,5.5993,5.5984,5.5981,5.5975,5.5974,5.5981,5.5978,5.5979,5.598,5.5997,5.6001,5.6003,0,0,0,0,0,0,5.6054,5.6039,5.6033,5.6032,5.6026,5.6014,5.6016,5.6008,5.6004,5.6003,5.599,5.5988,5.5991,5.5986,5.598,5.5989,5.5978,5.5979,5.5992,5.5995,5.5997,5.5998,5.5965,0,0,0,0,0,5.6057,5.6054,5.6042,5.6043,5.604,5.6029,5.6027,5.6019,5.6013,5.601,5.6003,5.5998,5.5996,5.5995,5.5993,5.5998,5.5997,5.6003,5.6005,5.6007,5.6008,5.6014,5.6017,5.5985,5.5985,5.5985,0,0,5.6064,5.6056,5.6055,5.6046,5.604,5.604,5.6027,5.6025,5.6025,5.601,5.6011,5.6006,5.6,5.6004,5.6006,5.6,5.6017,5.6009,5.601,5.601,5.6016,5.6019,5.6022,5.5986,5.5986,5.5985,0,0,5.6077,5.6069,5.607,5.6066,5.6058,5.6051,5.6052,5.6042,5.6038,5.6039,5.6029,5.603,5.6026,5.6023,5.6021,5.6038,5.603,5.6038,5.6051,5.6057,5.6059,5.6062,5.607,5.6073,5.6039,5.6039,5.6039,0,5.6086,5.6083,5.6072,5.6072,5.607,5.6058,5.606,5.6057,5.6049,5.6049,5.6043,5.6041,5.6036,5.6041,5.6045,5.6044,5.6046,5.6038,5.606,5.6062,5.6064,5.6072,5.6075,5.604,5.604,5.604,5.604,0,5.6097,5.6095,5.6097,5.6091,5.6089,5.6091,5.6082,5.6082,5.6076,5.6071,5.6074,5.6068,5.6066,5.6067,5.606,5.6072,5.607,5.6062,5.6051,5.6068,5.6076,5.6078,5.6042,5.6041,5.6041,5.6041,0,0,5.6115,5.6106,5.6107,5.6106,5.6098,5.6098,5.6101,5.6099,5.61,5.6097,5.61,5.61,5.6094,5.6092,5.6086,5.6091,5.6108,5.6083,5.6083,5.609,5.6125,5.6131,5.6134,5.6104,5.6104,5.6104,5.6126,0,5.6127,5.613,5.6122,5.6128,5.6128,5.6119,5.6122,5.6119,5.6115,5.6117,5.6113,5.6114,5.6105,5.6104,5.6109,5.6105,5.6115,5.6103,5.6109,5.6109,5.6111,5.6138,5.6143,5.6163,5.6129,5.6129,5.6129,0,5.614,5.6138,5.6144,5.6141,5.614,5.6143,5.6143,5.6143,5.6142,5.6139,5.6139,5.6133,5.6138,5.6128,5.6137,5.6129,5.6131,5.6131,5.6131,5.6131,5.612,5.614,5.6169,5.6173,5.6133,5.6133,5.6133,0,5.6155,5.6154,5.6159,5.6158,5.6153,5.6156,5.6154,5.6152,5.6153,5.6154,5.6155,5.6156,5.6157,5.6159,5.6155,5.6147,5.6165,5.6154,5.6165,5.6165,5.6168,5.6168,5.6199,5.6169,5.6169,5.6168,5.6168,0,5.6169,5.6173,5.6166,5.6168,5.6175,5.6167,5.6174,5.6172,5.6171,5.6175,5.6167,5.6171,5.6165,5.6169,5.6166,5.6175,5.6175,5.6175,5.6174,5.6176,5.6176,5.6177,5.6176,5.6169,5.6169,5.6169,5.6169,0,5.6186,5.6181,5.6185,5.6182,5.6181,5.6186,5.6184,5.6188,5.6185,5.6191,5.6192,5.6188,5.6193,5.6189,5.6194,5.6192,5.6205,5.6201,5.6205,5.6205,5.6216,5.6216,5.625,5.6255,5.622,5.622,5.622,0,5.6194,5.6198,5.6196,5.6198,5.6197,5.6201,5.6202,5.6197,5.6199,5.6201,5.6205,5.621,5.6213,5.6223,5.6221,5.6226,5.6224,5.6236,5.6224,5.6227,5.6226,5.6226,5.6228,5.6238,5.6238,5.6238,5.6239,0,5.6212,5.6211,5.6212,5.6215,5.6218,5.6219,5.6221,5.6223,5.6219,5.6222,5.6228,5.6231,5.6237,5.6243,5.6248,5.6249,5.6244,5.6243,5.6246,5.6247,5.625,5.6251,5.6212,5.6241,5.6241,5.6241,5.6241,5.6241,5.6226,5.623,5.623,5.6234,5.6235,5.6238,5.6242,5.6241,5.6246,5.6251,5.6248,5.6256,5.6259,5.6265,5.6267,5.6274,5.627,5.6273,5.6275,5.6276,5.6278,5.6249,5.6275,5.6275,5.6275,5.6275,5.6275,0,5.6244,5.6245,5.6248,5.6252,5.6256,5.6252,5.6254,5.6258,5.6265,5.6268,5.6272,5.6281,5.6288,5.6289,5.6296,5.6303,5.6301,5.6305,5.6304,5.6305,5.6281,5.6278,5.6306,5.6306,5.6306,5.6306,5.6306,5.6306,5.6254,5.6261,5.6261,5.6271,5.6272,5.6279,5.6281,5.6285,5.6288,5.6298,5.6304,5.6305,5.6308,5.6316,5.6324,5.6324,5.6328,5.6333,5.6333,5.631,5.6307,5.6304,5.6301,5.6334,5.6334,5.6357,5.6357,5.6357]}]]